Location: Hains Lake
(37.8540°N, 99.8578°W)
Time: 21:10:32
(UTC+00:00)

deb Explorer IX - Pass Details

Date: 27 April 2021
Orbit: 541 x 1098 km, 38.8° (Epoch: 13 May)

Event Time Altitude Azimuth Distance (km) Brightness Sun altitude
Rises 15:11:18 0° 281° (WNW) 2,734 ? 38.8°
Reaches altitude 10° 15:13:32 10° 275° (W) 1,876 ? 39.2°
Maximum altitude 15:17:36 43° 203° (SSW) 860 ? 40.0°
Drops below altitude 10° 15:22:11 10° 132° (SE) 2,111 ? 40.9°
Sets 15:24:50 0° 126° (SE) 3,121 ? 41.4°
